Location: Unspecified
(0.0000°N, 0.0000°E)
Time: 20:34:35
(UTC+00:00)

COSMOS 2468 - Visible Passes

Search period start: 19 September 2024 00:00
Search period end: 29 September 2024 00:00
Orbit: 1480 x 1501 km, 82.5° (Epoch: 18 September)

Date Brightness Start Highest point End Pass type
(mag) Time Alt. Az. Time Alt. Az. Time Alt. Az.
19 Sep 7.7 18:24:48 10° N 18:33:33 77° E 18:42:15 10° S visible
19 Sep 10.4 20:28:07 10° W 20:29:54 11° W 20:31:40 10° WSW visible
20 Sep 10.5 05:05:15 10° SE 05:10:17 17° E 05:15:17 10° ENE visible
20 Sep 9.4 19:32:31 10° NW 19:39:45 30° W 19:47:00 10° SSW visible
21 Sep 8.1 18:41:00 10° NNW 18:49:37 66° W 18:58:16 10° S visible
22 Sep 9.9 05:19:00 10° SSE 05:26:23 30° E 05:33:42 10° NE visible
22 Sep 10.2 19:51:02 10° WNW 19:55:50 16° W 20:00:40 10° SW visible
23 Sep 10.8 04:33:55 10° ESE 04:36:14 11° E 04:38:33 10° ENE visible
23 Sep 9.1 18:57:48 10° NNW 19:05:42 39° W 19:13:38 10° SSW visible
24 Sep 7.9 18:06:50 10° N 18:15:35 85° W 18:24:20 10° S visible
25 Sep 10.2 04:45:55 10° SE 04:52:20 23° E 04:58:43 10° NE visible
25 Sep 10.0 19:15:31 10° NW 19:21:48 22° W 19:28:06 10° SW visible
26 Sep 8.7 18:23:19 10° NNW 18:31:40 51° W 18:40:02 10° SSW visible
27 Sep 9.2 05:00:25 10° SSE 05:08:26 40° E 05:16:24 10° NNE visible
27 Sep 10.7 19:35:55 10° W 19:37:53 11° W 19:39:53 10° WSW visible
28 Sep 10.4 04:13:19 10° SE 04:18:17 16° E 04:23:14 10° ENE visible
28 Sep 9.7 18:40:31 10° NW 18:47:45 30° W 18:55:02 10° SSW visible
